Location: ??
(34.7252°N, 135.5457°E)
Time: 09:51:13
(UTC+00:00)

Cosmos 2333 Rocket - Pass Details

Date: 24 September 2020
Orbit: 839 x 862 km, 70.8° (Epoch: 23 October)

Event Time Altitude Azimuth Distance (km) Brightness Sun altitude
Exits shadow 19:15:14 - 190° (S) 3,348 5.1 -19.7°
Reaches altitude 10° 19:17:31 10° 188° (S) 2,489 4.4 -19.3°
Maximum altitude 19:23:10 63° 108° (ESE) 957 2.7 -18.1°
Drops below altitude 10° 19:28:50 10° 28° (NNE) 2,503 5.2 -17.0°
Sets 19:31:19 0° 26° (NNE) 3,442 5.9 -16.5°
